Location: Helsinki
(60.1699°N, 24.9384°E)
Time: 22:47:56
(UTC+02:00)

A-11 Canister half - Pass Details

Date: 30 October 2020
Orbit: 1516 x 1684 km, 47.2° (Epoch: 26 November)

Event Time Altitude Azimuth Distance (km) Brightness Sun altitude
Rises 00:21:11 0° 265° (W) 4,909 - -43.6°
Reaches altitude 10° 00:24:42 10° 257° (WSW) 3,903 - -43.5°
Maximum altitude 00:33:18 35° 197° (SSW) 2,400 - -43.4°
Drops below altitude 10° 00:41:40 10° 136° (SE) 3,783 - -43.2°
Sets 00:45:01 0° 128° (SE) 4,742 - -43.1°
